Tracking 35048 objects as of 19-Aug-2026
HD Live streaming from Space Station
objects crossing your sky now

COSMOS 1985 DEB


COSMOS 1985 DEB is no longer on orbit


NORAD ID: 19764
Int'l Code: 1988-113H
Launch date: December 23, 1988
Source: Commonwealth of Independent States (former USSR) (CIS)
Launch site: PLESETSK MISSILE AND SPACE COMPLEX (PKMTR)
Decay date: 2002-08-07

Note: This is SATELLITE DEBRIS
Your satellite tracking list
Your tracking list is empty




NASA's NSSDC Master Catalog

Two Line Element Set (TLE):
1 19764U 88113H   02219.74004694 +.23625884 +24344-5 +91722-4 0  9991
2 19764 073.4903 004.2787 0008655 238.3945 121.6590 16.57692817763621
Source of the keplerian elements: AFSPC